Montana Department of Transportation

Main Content

Accidents and Incidents Report

Hourly Weather Roundup

ASUS45 KTFX 231404
RWRMT 
MONTANA HOURLY WEATHER ROUNDUP
NATIONAL WEATHER SERVICE GREAT FALLS MT
804 AM MDT WED JUL 23 2014

NOTE: "FAIR" INDICATES FEW OR NO CLOUDS BELOW 12000 FEET WITH NO
SIGNIFICANT WEATHER AND/OR OBSTRUCTIONS TO VISIBILITY.

* THESE STATIONS ARE NOT UNDER NWS QUALITY CONTROL. THEY DO NOT
   REPORT WEATHER SUCH AS PRECIPITATION OR FOG.

MTZ001.007-043-231500-
WEST OF THE DIVIDE
CITY           SKY/WX    TMP DP  RH WIND       PRES   REMARKS
KALISPELL      CLOUDY    59  55  87 NW3       30.14F 
MISSOULA       LGT RAIN  61  57  87 S9        30.14F 
BUTTE          PTCLDY    61  50  67 NE3       30.32R 
MULLAN PASS    PTCLDY    52  46  80 SE10G20   30.19F 
* ESSEX        N/A       55  52  90 NE1        N/A   
* LINCOLN      N/A       54  53  96 NW3        N/A   
* LOOKOUT PASS N/A       52  52 100 S4         N/A   
* POLSON       N/A       58  54  87 W2         N/A   
* RONAN APT    CLOUDY    57  55  93 N/A        N/A   
* SEELEY LAKE  N/A       56  55  96 S3         N/A   
* THOMP F APT  PTCLDY    61  41  48 NW5G13     N/A   
* YAAK HILL    N/A       59  55  87 N/A        N/A   
--------------------------------

MTZ008-052.055-231500-
SOUTHWEST MONTANA
CITY           SKY/WX    TMP DP  RH WIND       PRES   REMARKS
BOZEMAN        PTCLDY    63  52  68 S3        30.23R 
DILLON         PTCLDY    63  48  58 SE7       30.26R 
W YELLOWSTONE  PTSUNNY   50  45  83 CALM      30.32R 
* THREE FORKS  PTCLDY    59  34  39 N/A        N/A   
* BOULDER HILL N/A       61  47  60 N4         N/A   
* MONIDA PASS  N/A       56  43  62 W16G24     N/A   
* RAYNOLDS PAS N/A       52   3  13 N5         N/A   
* WHITEHALL    N/A       64  50  61 NW3G9      N/A   
* WISE RIVER   N/A       52  49  90 W5         N/A   
--------------------------------

MTZ009.010-012-014-046-048-049-054-231500-
EAST SLOPES AND CENTRAL MONTANA
CITY           SKY/WX    TMP DP  RH WIND       PRES   REMARKS
CUT BANK       CLOUDY    55  54  96 SE8       30.18R 
GREAT FALLS    TSTM      59  57  93 SW7       30.18R 
HELENA         PTSUNNY   66  55  68 CALM      30.22S 
* CONRAD       CLOUDY    57  57 100 E10G15     N/A   
* DEARBORN     N/A       61  58  90 SW2        N/A   
* EAST GLACIER N/A       58  48  70 W11        N/A   
* MONARCH      N/A       60  47  62 SE2        N/A   
* ROGERS PASS  N/A       57  53  87 SW4        N/A   
* SAINT MARY   N/A       54  53  96 S5G10      N/A   
* SWEET GRASS  N/A       62  57  84 S11        N/A   
--------------------------------

MTZ011-013-016-021-035-040-045-047-050-051-231500-
NORTH CENTRAL MONTANA
CITY           SKY/WX    TMP DP  RH WIND       PRES   REMARKS
HAVRE          PTSUNNY   64  54  70 SE3       30.16R 
LEWISTOWN      PTSUNNY   64  55  73 W7        30.19R 
* CHESTER      N/A       63  55  75 SE1        N/A   
* DENTON       N/A       67  58  73 SE1        N/A   
* GEYSER       N/A       64  53  68 SW8G14     N/A   
* JUDITH GAP   N/A       64  60  87 N/A        N/A   
* LOMA         N/A       66  56  70 NW10G17    N/A   
--------------------------------

MTZ017.020-022.027-061-062-231500-
NORTHEAST MONTANA
CITY           SKY/WX    TMP DP  RH WIND       PRES   REMARKS
GLASGOW        PTCLDY    70  61  73 E16       30.16F 
GLENDIVE       SUNNY     66  61  84 E5        30.22S 
JORDAN         PTCLDY    66  61  84 E8        30.16F 
SIDNEY         PTCLDY    70  61  73 CALM      30.22F 
WOLF POINT     PTCLDY    66  61  84 E13       30.18F 
* BEAVER HILL  N/A       65  60  84 SE13G19    N/A   
* CIRCLE       N/A       67  62  84 NE4        N/A   
* LINDSAY DVD  N/A       63  61  93 E6         N/A   
* NAVAJO       N/A       62  60  93 E8         N/A   
* SACO         N/A       66  59  78 NE9        N/A   
--------------------------------

MTZ028.042-056.058-231500-
SOUTHCENTRAL AND SOUTHEAST MONTANA
CITY           SKY/WX    TMP DP  RH WIND       PRES   REMARKS
BAKER          PTCLDY    66  61  84 SE10      30.24R 
LIVINGSTON     PTCLDY    63  52  68 W7        30.21R 
MILES CITY     SUNNY68  63  84 NE5       30.19F 
* LAUREL APT   PTSUNNY   59  54  84 N/A        N/A   
* ROUNDUP APT  PTCLDY    61  55  81 N/A        N/A   
* ALZADA       N/A       67  61  81 N/A        N/A   
* HYSHAM       N/A       67  59  76 NE7        N/A   
* LAME DEER    N/A       66  58  76 SE14G21    N/A   
* REED POINT   N/A       59  56  90 W4         N/A   
* ROSCOE HILL  N/A       62  45  54 SE7        N/A   
--------------------------------

REGIONAL REPORTS...DAKOTAS
CITY           SKY/WX    TMP DP  RH WIND       PRES   REMARKS
WILLISTON      PTSUNNY   70  63  79 E7        30.22S 
DICKINSON      SUNNY     68  63  84 SE12      30.23R 
CROSBY         CLOUDY    64  64 100 E10       30.26F 
TIOGA          PTCLDY    66  66 100 E13G18    30.29S 
WATFORD CITY   SUNNY     68  64  87 E8        30.21S 
BISMARCK       SUNNY     70  61  73 SE9       30.28R 
GRAND FORKS    PTSUNNY   63  59  87 NW5       30.32R 
FARGO          PTSUNNY   64  59  84 N5        30.30R 
BUFFALO SD     SUNNY     68  61  78 CALM      30.18R 
RAPID CITY     PTSUNNY   72  59  64 SE6       30.24R 
--------------------------------

REGIONAL REPORTS...WYOMING/IDAHO/WASHINGTON
CITY           SKY/WX    TMP DP  RH WIND       PRES   REMARKS
GILLETTE       CLOUDY    70  61  73 S18G28    30.27R 
SHERIDAN       PTCLDY    70  59  68 S9        30.19S 
CODY           PTCLDY    64  46  52 CALM      30.26S 
YELLOWSTONE LA PTSUNNY   57  48  72 CALM      30.43R 
SALMON         SUNNY     63  52  68 E6        30.21F 
MULLAN PASS    PTCLDY    52  46  80 SE10G20   30.19S 
SAND POINT     PTCLDY    61  54  78 N12       30.07F 
SPOKANE        PTCLDY    64  55  73 NE8       30.03F 

--------------------------------